Вернуться в каталог

PSLV R/B

АктивенHEO
NORAD 39371·ROCKET BODY·🇮🇳 India

Запущен Nov 5, 2013 с Satish Dhawan Space Centre

Loading…

Ближайшие Пролёты (ближайшие 24 часа)

TLE

СвежийSource: Space-Track

Эпоха: Sep 14, 2026, 02:26 UTC

1 39371U 13060B   26257.10146568  .00006666  00000-0  84013-3 0  9999
2 39371  19.2922  50.2855 6074567 217.3100  79.0222  3.95307678172150

Отслеживайте PSLV R/B в реальном времени с AllMySat

Download on the App Store